Regional Weather Roundup
Issued by NWS

Home | Current Version | Previous Version | Text Only | Print | Product List | Glossary On
Versions: 1 2 3 4 5 6 7 8 9 10 11 12 13 14 15 16 17 18 19 20 21 22 23 24 25 26 27 28 29 30 31 32 33 34 35 36 37 38 39 40 41 42 43 44 45 46 47 48 49 50
000
ASUS44 KLIX 011810
RWRLA
LOUISIANA WEATHER ROUNDUP
NATIONAL WEATHER SERVICE NEW ORLEANS LA
1200 PM CST SUN FEB 01 2015

NOTE: "FAIR" INDICATES FEW OR NO CLOUDS BELOW 12,000 FEET WITH NO
      SIGNIFICANT WEATHER AND/OR OBSTRUCTIONS TO VISIBILITY.
      SKY/WX - SKY CONDITION AND SIGNIFICANT WEATHER.
      TMP - AIR TEMPERATURE.    DP   - DEWPOINT TEMPERATURE.
      RH  - RELATIVE HUMIDITY.  PRES - PRESSURE.
      HX  - HEAT INDEX.         WCI  - WIND CHILL INDEX.

*  THESE STATIONS ARE NOT NWS OR FAA STATIONS AND ARE NOT UNDER
   NWS QUALITY CONTROL.

LAZ040-048-061>063-065-066-069-011900-
SOUTHEAST LOUISIANA

CITY           SKY/WX    TMP DP  RH WIND       PRES   REMARKS
N.O. AUDUBON     N/A     76  68  74 MISG        N/A
6HR MIN TEMP:  59;                    6HR PCP:  0.01;

N.O. INTL ARPT PTSUNNY   72  63  73 S9        29.98F
6HR MIN TEMP:  60; 6HR MAX TEMP:  73; 6HR PCP:  0.03;

N.O. LAKEFRONT PTSUNNY   75  60  59 SW12      29.98F
6HR MIN TEMP:  61; 6HR MAX TEMP:  75; 6HR PCP:  0.03;

N.O. DOWNTOWN* NOT AVBL
SLIDELL        SUNNY     72  62  71 S9        29.98F
6HR MIN TEMP:  59; 6HR MAX TEMP:  72; 6HR PCP:  0.04;

BATON ROUGE    LGT RAIN  65  60  84 SW10G18   29.96F
6HR MIN TEMP:  58; 6HR MAX TEMP:  67; 6HR PCP: TRACE;

BOOTHVILLE     CLOUDY    66  63  90 S9        30.01R
6HR MIN TEMP:  59; 6HR MAX TEMP:  69; 6HR PCP:  0.03;

BELLE CHASSE   PTSUNNY   73  62  68 S9        29.98F
6HR MIN TEMP:  60; 6HR MAX TEMP:  73; 6HR PCP:  0.03;

BOGALUSA*        N/A     72  60  65 SW9G18    29.98F
6HR MIN TEMP:  56; 6HR MAX TEMP:  72; 6HR PCP:  0.05;

GALLIANO*      CLOUDY    74  65  74 MISG      29.99F
6HR MIN TEMP:  59; 6HR MAX TEMP:  74; 6HR PCP:  0.42;

NEW ROADS*     CLOUDY    64  61  91 S8        29.95F
6HR MIN TEMP:  57; 6HR MAX TEMP:  65; 6HR PCP:  0.01;

GONZALES*      LGT RAIN  68  66  93 S7        29.97F
6HR MIN TEMP:  59; 6HR MAX TEMP:  68;

HAMMOND*       CLOUDY    70  61  73 SW7       29.98F
HOUMA*         PTSUNNY   72  64  78 S8        29.97F
PORT FOURCHON* MOCLDY    72  64  78 VRB6      30.02F

$$

LAZ041-044-053-054-011900-
SOUTHWEST LOUISIANA

CITY           SKY/WX    TMP DP  RH WIND       PRES   REMARKS
LAKE CHARLES   SUNNY     71  64  78 SW14G23   29.94F
6HR MIN TEMP:  53; 6HR MAX TEMP:  72; 6HR PCP:  0.02;

LAFAYETTE      RAIN      67  64  90 SW7       29.95F FOG
6HR MIN TEMP:  58; 6HR MAX TEMP:  67; 6HR PCP:  0.04;

PATTERSON      CLOUDY    72  63  73 SW16      29.97F
6HR MIN TEMP:  61; 6HR MAX TEMP:  73;

SALT POINT       N/A     67  63  87 VRB3      29.97F
6HR MIN TEMP:  60; 6HR MAX TEMP:  70;

NEW IBERIA     CLOUDY    69  63  81 S13       29.96F
6HR MIN TEMP:  60; 6HR MAX TEMP:  69; 6HR PCP: TRACE;

CHENAULT AIRPK PTSUNNY   72  64  78 SW16G25   29.94F

$$

LAZ027-028-011900-
CENTRAL LOUISIANA

CITY           SKY/WX    TMP DP  RH WIND       PRES   REMARKS
FORT POLK      CLOUDY    72  61  68 SW20      29.89F
6HR MIN TEMP:  56; 6HR MAX TEMP:  72;

ALEXANDRIA INT PTSUNNY   71  61  70 SW18      29.88F
6HR MIN TEMP:  54; 6HR MAX TEMP:  72;

ALEXANDRIA     PTSUNNY   74  59  59 W18G28    29.88F
6HR MIN TEMP:  55; 6HR MAX TEMP:  73;


$$

LAZ001-002-011900-
NORTHWEST LOUISIANA

CITY           SKY/WX    TMP DP  RH WIND       PRES   REMARKS
SHREVEPORT     CLOUDY    68  60  75 SW15G22   29.83F
6HR MIN TEMP:  57; 6HR MAX TEMP:  68;

BARKSDALE AFB  CLOUDY    65  60  84 SW10      29.83F
6HR MIN TEMP:  54; 6HR MAX TEMP:  65;

DTN SHREVEPORT LGT RAIN  66  59  78 SW13      29.84F
6HR MIN TEMP:  55; 6HR MAX TEMP:  66; 6HR PCP: TRACE;


$$

LAZ014-016-011900-
NORTHEAST LOUISIANA

CITY           SKY/WX    TMP DP  RH WIND       PRES   REMARKS
MONROE         CLOUDY    66  60  81 SW12G22   29.87F
6HR MIN TEMP:  53; 6HR MAX TEMP:  66; 6HR PCP: TRACE;

TALLULAH       CLOUDY    66  59  78 SW12G21   29.90F
6HR MIN TEMP:  52; 6HR MAX TEMP:  66; 6HR PCP:  0.01;


$$




USA.gov is the U.S. government's official web portal to all federal, state and local government web resources and services.